GW3154 Weather Reports


Display with metric or nautical units.
time (UTC)temp
F
wind
direction
speed
MPH
gust
MPH
rain 1hr
in
rain 24hr
in
rain mn
in
humidity
%
barometer
mb
20260902191537 58 225 3.0 3.0 0.00 0.24 0.24 95 1007.5
20260902190034 58 194 2.0 2.0 0.05 0.23 0.23 96 1007.7
20260902184532 59 198 2.0 3.0 0.12 0.21 0.21 97 1007.7
20260902183032 58 171 2.0 2.0 0.19 0.19 0.19 97 1008.2
20260902181532 59 169 2.0 3.0 0.24 0.14 0.14 95 1008.0
20260902180028 59 182 2.0 2.0 0.00 0.09 0.09 92 1008.1
20260902174526 59 200 1.0 2.0 0.00 0.09 0.09 93 1008.3
20260902173021 59 174 1.0 1.0 0.12 0.09 0.09 93 1008.4
20260902171517 59 161 1.0 1.0 0.12 0.07 0.07 92 1008.6
20260902170016 59 179 5.0 7.0 0.12 0.04 0.04 90 1008.5
20260902164516 60 288 2.0 2.0 0.05 0.01 0.01 86 1008.4
20260902163015 62 209 0.0 0.0 0.00 0.00 0.00 82 1008.1
20260902161511 63 205 3.0 3.0 0.00 0.00 0.00 77 1007.7
20260902160010 62 173 2.0 2.0 0.00 0.00 0.00 77 1007.8
20260902154502 62 201 1.0 1.0 0.00 0.00 0.00 80 1007.9
20260902153003 61 173 2.0 3.0 0.00 0.00 0.00 82 1008.3
20260902151502 60 159 0.0 0.0 0.00 0.00 0.00 85 1008.3
20260902145957 60 187 0.0 0.0 0.00 0.00 0.00 86 1008.6
20260902144455 60 180 1.0 1.0 0.00 0.00 0.00 86 1008.6
20260902142952 59 177 1.0 1.0 0.00 0.00 0.00 87 1008.8
20260902141449 59 203 0.0 0.0 0.00 0.00 0.00 87 1008.9
20260902135950 59 190 0.0 0.0 0.00 0.00 0.00 87 1009.0
20260902134447 59 178 1.0 1.0 0.00 0.00 0.00 87 1009.2
20260902132943 59 177 1.0 2.0 0.00 0.00 0.00 87 1009.4
20260902131441 60 206 3.0 5.0 0.00 0.00 0.00 86 1009.5
20260902125937 60 196 1.0 1.0 0.00 0.00 0.00 86 1009.8
20260902124436 60 203 1.0 1.0 0.00 0.00 0.00 86 1009.8
20260902122931 60 202 0.0 0.0 0.00 0.00 0.00 85 1010.2
20260902121430 60 167 0.0 0.0 0.00 0.00 0.00 83 1010.3
20260902115926 60 171 1.0 1.0 0.00 0.00 0.00 83 1010.5
20260902114420 60 159 2.0 2.0 0.00 0.00 0.00 83 1010.8
20260902112915 60 197 0.0 1.0 0.00 0.00 0.00 83 1011.0
20260902111410 61 235 1.0 1.0 0.00 0.00 0.00 83 1011.1
20260902105907 61 156 2.0 2.0 0.00 0.00 0.00 83 1011.4
20260902104405 60 180 1.0 1.0 0.00 0.00 0.00 84 1011.5
20260902102900 59 210 1.0 2.0 0.00 0.00 0.00 85 1011.7
20260902101400 58 175 0.0 0.0 0.00 0.00 0.00 89 1011.6
20260902095900 58 181 1.0 2.0 0.00 0.00 0.00 89 1011.7
20260902094357 57 232 0.0 1.0 0.00 0.00 0.00 89 1012.1
20260902092856 58 179 1.0 1.0 0.00 0.00 0.00 89 1012.0
20260902091353 58 174 0.0 1.0 0.00 0.00 0.00 89 1012.2
20260902085848 58 189 0.0 0.0 0.00 0.00 0.00 88 1012.3
20260902084348 58 166 0.0 0.0 0.00 0.00 0.00 86 1012.6
20260902082843 59 186 0.0 0.0 0.00 0.00 0.00 84 1012.8
20260902081343 60 180 0.0 0.0 0.00 0.00 0.00 83 1012.9
20260902075839 60 196 1.0 1.0 0.00 0.00 0.00 82 1012.8
20260902074338 60 179 1.0 1.0 0.00 0.00 0.00 81 1012.8
20260902072837 60 181 0.0 0.0 0.00 0.00 0.00 81 1012.8
20260902071335 60 194 0.0 0.0 0.00 0.00 0.00 80 1012.9
20260902065836 61 199 0.0 0.0 0.00 0.00 0.00 79 1013.2
20260902064335 61 192 0.0 1.0 0.00 0.00 0.00 80 1013.3
20260902062830 61 226 1.0 1.0 0.00 0.00 0.00 81 1013.2
20260902061326 61 246 1.0 1.0 0.00 0.00 0.00 82 1013.4
20260902055824 61 180 1.0 1.0 0.00 0.00 0.00 84 1013.5
20260902054323 62 177 1.0 1.0 0.00 0.00 0.00 83 1013.5
20260902052817 62 176 0.0 1.0 0.00 0.00 0.00 84 1013.6
20260902051313 62 165 1.0 1.0 0.00 0.00 0.00 84 1013.7
20260902045808 62 171 2.0 2.0 0.00 0.00 0.00 85 1013.8
20260902044307 62 178 1.0 2.0 0.00 0.00 0.00 84 1013.6
20260902042802 62 167 1.0 1.0 0.00 0.00 0.00 83 1013.5
20260902041258 62 178 1.0 2.0 0.00 0.00 0.00 81 1013.5
20260902035757 62 184 0.0 1.0 0.00 0.00 0.00 81 1013.6
20260902034253 62 177 1.0 2.0 0.00 0.00 0.00 80 1013.5
20260902032750 62 210 0.0 0.0 0.00 0.00 0.00 80 1013.4
20260902031247 62 182 0.0 0.0 0.00 0.00 0.00 80 1013.5
20260902025748 62 184 0.0 0.0 0.00 0.00 0.00 79 1013.4
20260902024245 63 221 0.0 0.0 0.00 0.00 0.00 77 1013.4
20260902022741 63 250 0.0 0.0 0.00 0.00 0.00 76 1013.4
20260902021238 64 225 0.0 0.0 0.00 0.00 0.00 76 1013.4
20260902015737 63 188 0.0 0.0 0.00 0.00 0.00 76 1013.3
20260902014232 63 202 1.0 2.0 0.00 0.00 0.00 76 1013.2
20260902012733 64 331 1.0 1.0 0.00 0.00 0.00 77 1013.4
20260902011229 63 186 2.0 2.0 0.00 0.00 0.00 78 1013.5
20260902005729 64 166 1.0 2.0 0.00 0.00 0.00 76 1013.3
20260902004226 65 161 1.0 2.0 0.00 0.00 0.00 73 1012.9
20260902002724 66 181 1.0 1.0 0.00 0.00 0.00 70 1012.9
20260902001225 67 171 1.0 1.0 0.00 0.00 0.00 66 1012.7
20260901235720 68 192 2.0 3.0 0.00 0.00 0.00 65 1012.8
20260901234216 68 142 0.0 1.0 0.00 0.00 0.00 66 1012.6
20260901232712 68 170 1.0 1.0 0.00 0.00 0.00 65 1012.6
20260901231212 68 199 1.0 1.0 0.00 0.00 0.00 66 1012.8
20260901225708 68 190 1.0 2.0 0.00 0.00 0.00 67 1012.9
20260901224206 68 185 1.0 1.0 0.00 0.00 0.00 67 1012.9
20260901222705 68 206 4.0 6.0 0.00 0.00 0.00 68 1012.9
20260901221204 67 183 3.0 5.0 0.00 0.00 0.00 68 1013.0
20260901215701 68 292 3.0 5.0 0.00 0.00 0.00 66 1013.1
20260901214200 68 196 1.0 1.0 0.00 0.00 0.00 67 1012.8
20260901212700 69 168 0.0 1.0 0.00 0.00 0.00 64 1012.8
20260901211158 68 178 2.0 2.0 0.00 0.00 0.00 65 1012.8
20260901205657 67 195 4.0 5.0 0.00 0.00 0.00 68 1012.7
20260901204154 67 246 2.0 2.0 0.00 0.00 0.00 69 1012.7
20260901202654 67 185 3.0 5.0 0.00 0.00 0.00 70 1012.9
20260901201151 67 169 2.0 3.0 0.00 0.00 0.00 70 1012.9
20260901195649 66 178 4.0 5.0 0.00 0.00 0.00 74 1012.9
20260901194146 66 175 3.0 3.0 0.00 0.00 0.00 74 1013.3
20260901192642 66 190 4.0 5.0 0.00 0.00 0.00 76 1013.4